Overview Statistics Trail Chart Weather Telemetry Raw packets
 

This is the latest recevied weather packets stored in our database for station/object N7WSS. If no packets are shown the sender has not sent any weather packets the latest 10 day(s).

<< 52 53 54 55 56 57 58 >>
Time Temp. Humidity Pressure Rain* Wind** Luminosity Snow
1788279353 28.33° C 50% 1016.7 hPa 0 mm - - -
1788279053 27.78° C 52% 1016.5 hPa 0 mm - - -
1788278749 27.78° C 52% 1016.5 hPa 0 mm - - -
1788278444 28.33° C 51% 1016.5 hPa 0 mm - - -
1788278143 28.33° C 52% 1016.5 hPa 0 mm - - -
1788277839 28.33° C 52% 1016.3 hPa 0 mm - - -
1788277539 27.78° C 55% 1016.5 hPa 0 mm - - -
1788277234 27.78° C 56% 1016.5 hPa 0 mm - - -
1788276946 27.78° C 54% 1016.5 hPa 0 mm - - -
1788276629 27.78° C 54% 1016.6 hPa 0 mm - - -
1788276329 27.22° C 57% 1016.6 hPa 0 mm - - -
1788276028 26.67° C 59% 1016.6 hPa 0 mm - - -
1788275724 26.11° C 63% 1016.6 hPa 0 mm - - -
1788275423 26.11° C 61% 1016.8 hPa 0 mm - - -
1788275127 26.11° C 61% 1016.7 hPa 0 mm - - -
1788274819 26.11° C 60% 1016.8 hPa 0 mm - - -
1788274513 25.56° C 65% 1016.8 hPa 0 mm - - -
1788274233 25.56° C 62% 1016.6 hPa 0 mm - - -
1788273909 25° C 64% 1016.7 hPa 0 mm - - -
1788273603 25.56° C 65% 1016.7 hPa 0 mm - - -
1788273300 25° C 66% 1016.6 hPa 0 mm - - -
1788272996 24.44° C 68% 1016.5 hPa 0 mm - - -
1788272695 23.89° C 72% 1016.6 hPa 0 mm - - -
1788272391 22.78° C 74% 1016.8 hPa 0 mm - - -
1788272090 22.78° C 76% 1016.5 hPa 0 mm - - -

* Rain latest hour (hover to see other rain measurements)
** Current wind speed in m/s (hover to see current wind gust speed)